Current Version              Previous Version:    01  02  03  04  05  06  07  08  09  10  11  12  13  14  15  16  17  18  19  20  21  22  23  24  25  26  27  28  29  30  
   31  32  33  34  35  36  37  38  39  40  41  42  43  44  45  46  47  48  49  50  51  52  53  54  55  56  57  58  59  60  

[Printable]
351
ASUS44 KFWD 282203
RWRTX
NORTH TEXAS HOURLY WEATHER ROUNDUP
NATIONAL WEATHER SERVICE FORT WORTH TX
500 PM CDT MON JUL 28 2014

NOTE: "FAIR" INDICATES FEW OR NO CLOUDS BELOW 12,000 FEET WITH NO
SIGNIFICANT WEATHER AND/OR OBSTRUCTIONS TO VISIBILITY.

TXZ118-119-282300-
DALLAS/FORT WORTH METROPLEX

CITY           SKY/WX    TMP DP  RH WIND       PRES   REMARKS
DFW AIRPORT    PTSUNNY   92  58  31 N17       30.10F HX  91
DALLAS LOVE    PTSUNNY   92  59  33 NE14G21   30.09F HX  91
FTW MEACHAM    MOSUNNY   93  57  29 NE17      30.10F HX  91
DAL-EXECUTIVE  MOSUNNY   96  64  34 N15G23    30.08F HX  98
FTW-ALLIANCE   PTSUNNY   89  56  32 N14G21    30.11F
FTW-NAS-JRB    PTSUNNY   94  57  28 N18G24    30.15F HX  92
FTW-SPINKS     SUNNY     93  59  31 N24G36    30.12S HX  92
ARLINGTON      MOSUNNY   92  64  39 N18G25    30.09S HX  93
GRAND PRAIRIE  SUNNY     90  63  40 N16G22    30.11S HX  90
ADDISON        PTSUNNY   90  57  33 N15G23    30.11F
MESQUITE       MOSUNNY   91  63  38 N14G20    30.08F HX  92
LANCASTER      MOSUNNY   95  60  31 N14G20    30.08F HX  94
$$

TXZ091>094-102>105-117-120-121-131>134-282300-
NORTH CENTRAL TEXAS

CITY           SKY/WX    TMP DP  RH WIND       PRES   REMARKS
SHRMAN/DENISON CLOUDY    85  60  42 N12G20    30.12F
GAINESVILLE    CLOUDY    82  65  57 N12G17    30.15F
BOWIE          CLOUDY    79  66  64 NE7       30.14F
BRIDGEPORT     MOSUNNY   83  63  49 NE9       30.15F
DECATUR        PTSUNNY   83  61  47 NE10      30.15F
DENTON         PTSUNNY   85  62  46 N10       30.12F
MCKINNEY       PTSUNNY   86  68  54 N15       30.10F
GREENVILLE     PTSUNNY   90  63  40 NW13G20   30.09S HX  90
ROCKWALL       MOSUNNY   88  66  48 N13G21    30.09S HX  90
TERRELL        MOSUNNY   96  65  35 N15G24    30.07S HX  98
WAXAHACHIE     MOSUNNY   92  60  34 N12G22    30.10F HX  91
CLEBURNE       MOSUNNY   93  63  36 N24G32    30.10F HX  94
GRANBURY       MOSUNNY   94  61  33 N16G26    30.11F HX  94
$$

TXZ083>090-098>101-113>116-127>130-139>142-154-155-282300-
WESTERN NORTH TEXAS

CITY           SKY/WX    TMP DP  RH WIND       PRES   REMARKS
WICHITA FALLS  CLOUDY    75  66  73 E7        30.14F
WF-KICKAPOO    CLOUDY    75  63  65 E6        30.15F
VERNON         CLOUDY    76  62  60 SE6       30.19F
ABILENE        CLOUDY    90  65  43 E17       30.16S HX  92
ABILENE-DYESS  PTSUNNY   90  68  47 E15       30.14F HX  94
BRECKENRIDGE   CLOUDY    91  56  30 E16G25    30.13F HX  90
GRAHAM         MOSUNNY   86  66  51 E8        30.14F
MINERAL WELLS  MOSUNNY   91  57  31 NE22      30.12F
STEPHENVILLE   PTSUNNY   94  62  34 NE13G22   30.14F HX  94
COMANCHE       CLOUDY    86  68  54 NE8       30.12F
BROWNWOOD      CLOUDY    82  70  65 N13       30.12F
COLEMAN        CLOUDY    84  68  58 NE23G29   30.13F
BRADY          SUNNY     99  63  30 E8        30.09F HX 100
$$

TXZ143>147-156>162-174-175-282300-
CENTRAL TEXAS

CITY           SKY/WX    TMP DP  RH WIND       PRES   REMARKS
WACO           PTSUNNY   83  70  64 N13       30.07R
WACO-TSTC      PTSUNNY   77  72  83 NW16G25   30.06S
WACO-MCGREGOR  MOSUNNY   90  64  43 NE14G25   30.08R HX  91
HILLSBORO      CLOUDY    80  71  72 E7        30.10S
CORSICANA      CLOUDY    84  71  65 NW9       30.09R
MEXIA          PTSUNNY   77  72  84 N17G28    30.08R
HEARNE         SUNNY    N/A N/A N/A SE3       30.04F
CAMERON        SUNNY     98  66  35 CALM      30.04F HX 101
TEMPLE         MOSUNNY   97  64  34 SE9       30.06S HX  99
KILLEEN        PTSUNNY   97  63  32 SE10G16   30.06F HX  98
KILLEEN-SKYLRK MOSUNNY   99  64  32 E8        30.05F HX 101
FORT HOOD      MOSUNNY  101  65  30 E5        30.06F HX 104
GATESVILLE     PTSUNNY   91  70  49 N5        30.09S HX  97
HAMILTON       CLOUDY    83  69  63 E15G22    30.13S THUNDER
LAMPASAS       PTSUNNY   96  62  32 SE5       30.07F HX  97
$$

TXZ095>097-106>112-122>126-135>138-148>153-164>167-282300-
EAST TEXAS

CITY           SKY/WX    TMP DP  RH WIND       PRES   REMARKS
PARIS          MOSUNNY   90  61  37 N16G22    30.09F
SULPHUR SPRNGS MOSUNNY   90  66  45 N12G17    30.09F HX  93
CLARKSVILLE    SUNNY     90  64  41 N9        30.07F HX  91
MOUNT PLEASANT MOSUNNY   90  66  45 N9        30.07F HX  93
GILMER         MOSUNNY   90  73  58 N10       30.06F HX  98
MINEOLA        PTSUNNY   91  73  55 N13       30.07S HX 100
TYLER          CLOUDY    84  74  71 S8        30.06R THUNDER HX  91
LONGVIEW       PTSUNNY   90  74  59 NE7       30.01F HX  99
MARSHALL       MOSUNNY   94  76  57 N6        30.06S HX 106
ATHENS         TSTM      72  70  94 SW3       30.08F
JACKSONVILLE   PTSUNNY   92  73  53 N8        30.09R HX 100
HENDERSON      PTSUNNY   77  73  86 CALM      30.04S THUNDER
NACOGDOCHES    SUNNY     93  73  52 SW6       30.03S HX 102
LUFKIN         MOSUNNY   97  74  47 W6        30.03F HX 108
$$

SUPPLEMENTAL OBSERVATIONS (CENTRAL)

CITY           SKY/WX    TMP DP  RH WIND       PRES   REMARKS
$$

SUPPLEMENTAL OBSERVATIONS (WEST)

CITY           SKY/WX    TMP DP  RH WIND       PRES   REMARKS
$$

SUPPLEMENTAL OBSERVATIONS (EAST)

CITY           SKY/WX    TMP DP  RH WIND       PRES   REMARKS
$$

SUPPLEMENTAL OBSERVATIONS ARE A COLLECTION OF AUTOMATED INSTRUMENTS
THAT ARE MAINTAINED BY A VARIETY OF FEDERAL AND STATE AGENCIES.
CERTAIN ELEMENTS...SUCH AS HUMIDITY VALUES AND SUSTAINED WIND
SPEEDS...MAY BE APPROXIMATED.